| time (UTC) | temp C | wind direction | speed KPH | gust KPH | rain 1hr cm | rain 24hr cm | rain mn cm | humidity % | barometer mb |
| 20260503195001 | 18 | 0.0 | 0.0 | 0.00 | 0.00 | 0.00 | 34 | 1016.0 | |
| 20260503194501 | 18 | 0.0 | 0.0 | 0.00 | 0.00 | 0.00 | 34 | 1016.0 | |
| 20260503194001 | 18 | 0.0 | 0.0 | 0.00 | 0.00 | 0.00 | 33 | 1015.9 | |
| 20260503193501 | 18 | 0.0 | 0.0 | 0.00 | 0.00 | 0.00 | 34 | 1016.0 | |
| 20260503193001 | 18 | 0.0 | 0.0 | 0.00 | 0.00 | 0.00 | 32 | 1016.0 | |
| 20260503192501 | 19 | 0.0 | 0.0 | 0.00 | 0.00 | 0.00 | 32 | 1016.0 | |
| 20260503192001 | 19 | 0.0 | 0.0 | 0.00 | 0.00 | 0.00 | 32 | 1015.9 | |
| 20260503191501 | 19 | 0.0 | 0.0 | 0.00 | 0.00 | 0.00 | 31 | 1015.9 | |
| 20260503191001 | 20 | 0.0 | 0.0 | 0.00 | 0.00 | 0.00 | 31 | 1015.8 | |
| 20260503190501 | 19 | 0.0 | 0.0 | 0.00 | 0.00 | 0.00 | 31 | 1015.8 | |
| 20260503190001 | 20 | 0.0 | 0.0 | 0.00 | 0.00 | 0.00 | 31 | 1015.8 | |
| 20260503185501 | 20 | 0.0 | 0.0 | 0.00 | 0.00 | 0.00 | 29 | 1015.7 | |
| 20260503185001 | 20 | 0.0 | 0.0 | 0.00 | 0.00 | 0.00 | 29 | 1015.6 | |
| 20260503184501 | 20 | 0.0 | 0.0 | 0.00 | 0.00 | 0.00 | 29 | 1015.6 | |
| 20260503181001 | 22 | 0.0 | 0.0 | 0.00 | 0.00 | 0.00 | 24 | 1015.2 | |
| 20260503180501 | 22 | 0.0 | 0.0 | 0.00 | 0.00 | 0.00 | 23 | 1015.2 | |
| 20260503180001 | 22 | 0.0 | 0.0 | 0.00 | 0.00 | 0.00 | 23 | 1015.1 | |
| 20260503175501 | 23 | 0.0 | 0.0 | 0.00 | 0.00 | 0.00 | 22 | 1015.1 | |
| 20260503175001 | 23 | 0.0 | 0.0 | 0.00 | 0.00 | 0.00 | 21 | 1015.2 | |
| 20260503174501 | 23 | 0.0 | 0.0 | 0.00 | 0.00 | 0.00 | 20 | 1015.1 | |
| 20260503174001 | 24 | 0.0 | 0.0 | 0.00 | 0.00 | 0.00 | 19 | 1015.1 | |
| 20260503173501 | 24 | 0.0 | 0.0 | 0.00 | 0.00 | 0.00 | 19 | 1015.0 | |
| 20260503173002 | 24 | 0.0 | 0.0 | 0.00 | 0.00 | 0.00 | 18 | 1015.0 | |
| 20260503172502 | 24 | 0.0 | 0.0 | 0.00 | 0.00 | 0.00 | 18 | 1015.0 | |
| 20260503172001 | 25 | 0.0 | 0.0 | 0.00 | 0.00 | 0.00 | 18 | 1014.9 | |
| 20260503171502 | 25 | 0.0 | 0.0 | 0.00 | 0.00 | 0.00 | 17 | 1014.8 | |
| 20260503171001 | 26 | 0.0 | 0.0 | 0.00 | 0.00 | 0.00 | 16 | 1014.8 | |
| 20260503170501 | 26 | 0.0 | 0.0 | 0.00 | 0.00 | 0.00 | 15 | 1014.8 | |
| 20260503151001 | 28 | 0.0 | 0.0 | 0.00 | 0.00 | 0.00 | 12 | 1015.0 | |
| 20260503150501 | 28 | 0.0 | 0.0 | 0.00 | 0.00 | 0.00 | 12 | 1015.1 | |
| 20260503131001 | 26 | 0.0 | 0.0 | 0.00 | 0.00 | 0.00 | 14 | 1016.3 | |
| 20260503130501 | 26 | 0.0 | 0.0 | 0.00 | 0.00 | 0.00 | 15 | 1016.4 | |
| 20260503110501 | 26 | 0.0 | 0.0 | 0.00 | 0.00 | 0.00 | 17 | 1017.7 | |
| 20260503072501 | 20 | 0.0 | 0.0 | 0.00 | 0.00 | 0.00 | 27 | 1019.0 | |
| 20260503072001 | 20 | 0.0 | 0.0 | 0.00 | 0.00 | 0.00 | 28 | 1019.0 | |
| 20260503071501 | 20 | 0.0 | 0.0 | 0.00 | 0.00 | 0.00 | 28 | 1019.1 | |
| 20260503071001 | 19 | 0.0 | 0.0 | 0.00 | 0.00 | 0.00 | 27 | 1019.1 | |
| 20260503070501 | 19 | 0.0 | 0.0 | 0.00 | 0.00 | 0.00 | 29 | 1019.1 | |
| 20260503054501 | 16 | 0.0 | 0.0 | 0.00 | 0.00 | 0.00 | 35 | 1018.9 | |
| 20260503054001 | 16 | 0.0 | 0.0 | 0.00 | 0.00 | 0.00 | 36 | 1018.9 | |
| 20260503053501 | 15 | 0.0 | 0.0 | 0.00 | 0.00 | 0.00 | 37 | 1019.0 | |
| 20260503053001 | 16 | 0.0 | 0.0 | 0.00 | 0.00 | 0.00 | 37 | 1018.9 | |
| 20260503052501 | 15 | 0.0 | 0.0 | 0.00 | 0.00 | 0.00 | 38 | 1018.9 | |
| 20260503052001 | 15 | 0.0 | 0.0 | 0.00 | 0.00 | 0.00 | 39 | 1019.0 | |
| 20260503051501 | 15 | 0.0 | 0.0 | 0.00 | 0.00 | 0.00 | 39 | 1019.0 | |
| 20260503051001 | 15 | 0.0 | 0.0 | 0.00 | 0.00 | 0.00 | 39 | 1019.0 | |
| 20260503050501 | 15 | 0.0 | 0.0 | 0.00 | 0.00 | 0.00 | 40 | 1018.9 | |
| 20260503050001 | 15 | 0.0 | 0.0 | 0.00 | 0.00 | 0.00 | 40 | 1018.9 | |
| 20260503045501 | 15 | 0.0 | 0.0 | 0.00 | 0.00 | 0.00 | 40 | 1018.9 | |
| 20260503045001 | 15 | 0.0 | 0.0 | 0.00 | 0.00 | 0.00 | 40 | 1018.9 | |
| 20260503044501 | 15 | 0.0 | 0.0 | 0.00 | 0.00 | 0.00 | 41 | 1018.9 | |
| 20260503044001 | 14 | 0.0 | 0.0 | 0.00 | 0.00 | 0.00 | 42 | 1018.8 | |
| 20260503043501 | 14 | 0.0 | 0.0 | 0.00 | 0.00 | 0.00 | 42 | 1018.9 | |
| 20260503043001 | 13 | 0.0 | 0.0 | 0.00 | 0.00 | 0.00 | 43 | 1018.8 | |
| 20260503042501 | 13 | 0.0 | 0.0 | 0.00 | 0.00 | 0.00 | 44 | 1018.7 | |
| 20260503042001 | 12 | 0.0 | 0.0 | 0.00 | 0.00 | 0.00 | 44 | 1018.9 | |
| 20260503041501 | 12 | 0.0 | 0.0 | 0.00 | 0.00 | 0.00 | 44 | 1018.8 | |
| 20260503041001 | 12 | 0.0 | 0.0 | 0.00 | 0.00 | 0.00 | 43 | 1018.7 | |
| 20260503040501 | 12 | 0.0 | 0.0 | 0.00 | 0.00 | 0.00 | 43 | 1018.6 | |
| 20260503040001 | 12 | 0.0 | 0.0 | 0.00 | 0.00 | 0.00 | 42 | 1018.5 | |
| 20260503035501 | 12 | 0.0 | 0.0 | 0.00 | 0.00 | 0.00 | 42 | 1018.6 | |
| 20260503035001 | 12 | 0.0 | 0.0 | 0.00 | 0.00 | 0.00 | 42 | 1018.5 | |
| 20260503034501 | 12 | 0.0 | 0.0 | 0.00 | 0.00 | 0.00 | 41 | 1018.5 | |
| 20260503034001 | 12 | 0.0 | 0.0 | 0.00 | 0.00 | 0.00 | 42 | 1018.5 | |
| 20260503033501 | 12 | 0.0 | 0.0 | 0.00 | 0.00 | 0.00 | 42 | 1018.4 | |
| 20260503033001 | 12 | 0.0 | 0.0 | 0.00 | 0.00 | 0.00 | 41 | 1018.3 | |
| 20260503032501 | 12 | 0.0 | 0.0 | 0.00 | 0.00 | 0.00 | 41 | 1018.3 | |
| 20260503032001 | 12 | 0.0 | 0.0 | 0.00 | 0.00 | 0.00 | 42 | 1018.2 | |
| 20260503031501 | 12 | 0.0 | 0.0 | 0.00 | 0.00 | 0.00 | 43 | 1018.3 | |
| 20260503031001 | 12 | 0.0 | 0.0 | 0.00 | 0.00 | 0.00 | 46 | 1018.2 | |
| 20260503030501 | 12 | 0.0 | 0.0 | 0.00 | 0.00 | 0.00 | 45 | 1018.2 | |
| 20260503030001 | 12 | 0.0 | 0.0 | 0.00 | 0.00 | 0.00 | 46 | 1018.1 | |
| 20260503025500 | 12 | 0.0 | 0.0 | 0.00 | 0.00 | 0.00 | 45 | 1018.1 | |
| 20260503025001 | 13 | 0.0 | 0.0 | 0.00 | 0.00 | 0.00 | 43 | 1018.0 | |
| 20260503024501 | 12 | 0.0 | 0.0 | 0.00 | 0.00 | 0.00 | 44 | 1017.9 | |
| 20260503024001 | 13 | 0.0 | 0.0 | 0.00 | 0.00 | 0.00 | 43 | 1018.0 | |
| 20260503023501 | 12 | 0.0 | 0.0 | 0.00 | 0.00 | 0.00 | 43 | 1017.9 | |
| 20260503023001 | 13 | 0.0 | 0.0 | 0.00 | 0.00 | 0.00 | 42 | 1018.0 | |
| 20260503022501 | 12 | 0.0 | 0.0 | 0.00 | 0.00 | 0.00 | 44 | 1017.9 | |
| 20260503022001 | 13 | 0.0 | 0.0 | 0.00 | 0.00 | 0.00 | 39 | 1017.6 | |
| 20260503021501 | 12 | 0.0 | 0.0 | 0.00 | 0.00 | 0.00 | 42 | 1017.6 | |
| 20260503021000 | 12 | 0.0 | 0.0 | 0.00 | 0.00 | 0.00 | 42 | 1017.5 | |
| 20260503020501 | 12 | 0.0 | 0.0 | 0.00 | 0.00 | 0.00 | 43 | 1017.7 | |
| 20260503020000 | 12 | 0.0 | 0.0 | 0.00 | 0.00 | 0.00 | 42 | 1017.6 | |
| 20260503015501 | 12 | 0.0 | 0.0 | 0.00 | 0.00 | 0.00 | 43 | 1017.5 | |
| 20260503015000 | 12 | 0.0 | 0.0 | 0.00 | 0.00 | 0.00 | 43 | 1017.5 | |
| 20260503014501 | 12 | 0.0 | 0.0 | 0.00 | 0.00 | 0.00 | 42 | 1017.6 | |
| 20260503014001 | 12 | 0.0 | 0.0 | 0.00 | 0.00 | 0.00 | 43 | 1017.6 | |
| 20260503013501 | 12 | 0.0 | 0.0 | 0.00 | 0.00 | 0.00 | 43 | 1017.7 | |
| 20260503013000 | 13 | 0.0 | 0.0 | 0.00 | 0.00 | 0.00 | 41 | 1017.6 | |
| 20260503012500 | 13 | 0.0 | 0.0 | 0.00 | 0.00 | 0.00 | 40 | 1017.6 | |
| 20260503012000 | 14 | 0.0 | 0.0 | 0.00 | 0.00 | 0.00 | 39 | 1017.6 | |
| 20260503011501 | 14 | 0.0 | 0.0 | 0.00 | 0.00 | 0.00 | 39 | 1017.6 | |
| 20260503011000 | 13 | 0.0 | 0.0 | 0.00 | 0.00 | 0.00 | 40 | 1017.6 | |
| 20260503010500 | 13 | 0.0 | 0.0 | 0.00 | 0.00 | 0.00 | 41 | 1017.6 | |
| 20260503010000 | 12 | 0.0 | 0.0 | 0.00 | 0.00 | 0.00 | 44 | 1017.7 | |
| 20260503005500 | 13 | 0.0 | 0.0 | 0.00 | 0.00 | 0.00 | 44 | 1017.6 | |
| 20260503005000 | 13 | 0.0 | 0.0 | 0.00 | 0.00 | 0.00 | 41 | 1017.6 | |
| 20260503004500 | 13 | 0.0 | 0.0 | 0.00 | 0.00 | 0.00 | 40 | 1017.5 | |
| 20260503004000 | 13 | 0.0 | 0.0 | 0.00 | 0.00 | 0.00 | 41 | 1017.6 | |
| 20260503003500 | 14 | 0.0 | 0.0 | 0.00 | 0.00 | 0.00 | 40 | 1017.5 | |
| 20260503003000 | 13 | 0.0 | 0.0 | 0.00 | 0.00 | 0.00 | 42 | 1017.4 | |
| 20260503002500 | 13 | 0.0 | 0.0 | 0.00 | 0.00 | 0.00 | 42 | 1017.4 | |
| 20260503002000 | 13 | 0.0 | 0.0 | 0.00 | 0.00 | 0.00 | 42 | 1017.4 | |
| 20260503001500 | 13 | 0.0 | 0.0 | 0.00 | 0.00 | 0.00 | 42 | 1017.4 | |
| 20260503001000 | 13 | 0.0 | 0.0 | 0.00 | 0.00 | 0.00 | 41 | 1017.4 | |
| 20260503000500 | 13 | 0.0 | 0.0 | 0.00 | 0.00 | 0.00 | 41 | 1017.4 | |
| 20260503000000 | 13 | 0.0 | 0.0 | 0.00 | 0.00 | 0.00 | 40 | 1017.4 | |
| 20260502235500 | 13 | 0.0 | 0.0 | 0.00 | 0.00 | 0.00 | 40 | 1017.4 | |
| 20260502235000 | 13 | 0.0 | 0.0 | 0.00 | 0.00 | 0.00 | 39 | 1017.5 | |
| 20260502234500 | 13 | 0.0 | 0.0 | 0.00 | 0.00 | 0.00 | 38 | 1017.4 | |
| 20260502234000 | 13 | 0.0 | 0.0 | 0.00 | 0.00 | 0.00 | 39 | 1017.4 | |
| 20260502233500 | 13 | 0.0 | 0.0 | 0.00 | 0.00 | 0.00 | 39 | 1017.5 | |
| 20260502233000 | 13 | 0.0 | 0.0 | 0.00 | 0.00 | 0.00 | 39 | 1017.5 | |
| 20260502232501 | 13 | 0.0 | 0.0 | 0.00 | 0.00 | 0.00 | 39 | 1017.5 | |
| 20260502232000 | 13 | 0.0 | 0.0 | 0.00 | 0.00 | 0.00 | 38 | 1017.4 | |
| 20260502231500 | 13 | 0.0 | 0.0 | 0.00 | 0.00 | 0.00 | 38 | 1017.4 | |
| 20260502231000 | 15 | 0.0 | 0.0 | 0.00 | 0.00 | 0.00 | 38 | 1017.4 | |
| 20260502230500 | 15 | 0.0 | 0.0 | 0.00 | 0.00 | 0.00 | 38 | 1017.3 | |
| 20260502230000 | 15 | 0.0 | 0.0 | 0.00 | 0.00 | 0.00 | 38 | 1017.4 | |
| 20260502225500 | 15 | 0.0 | 0.0 | 0.00 | 0.00 | 0.00 | 37 | 1017.3 | |
| 20260502225000 | 15 | 0.0 | 0.0 | 0.00 | 0.00 | 0.00 | 36 | 1017.4 | |
| 20260502224500 | 15 | 0.0 | 0.0 | 0.00 | 0.00 | 0.00 | 36 | 1017.4 | |
| 20260502224000 | 15 | 0.0 | 0.0 | 0.00 | 0.00 | 0.00 | 36 | 1017.3 | |
| 20260502223500 | 15 | 0.0 | 0.0 | 0.00 | 0.00 | 0.00 | 36 | 1017.3 | |
| 20260502223000 | 15 | 0.0 | 0.0 | 0.00 | 0.00 | 0.00 | 37 | 1017.4 | |
| 20260502222500 | 15 | 0.0 | 0.0 | 0.00 | 0.00 | 0.00 | 37 | 1017.5 | |
| 20260502222000 | 15 | 0.0 | 0.0 | 0.00 | 0.00 | 0.00 | 38 | 1017.4 | |
| 20260502221500 | 15 | 0.0 | 0.0 | 0.00 | 0.00 | 0.00 | 37 | 1017.4 | |
| 20260502221000 | 15 | 0.0 | 0.0 | 0.00 | 0.00 | 0.00 | 37 | 1017.5 | |
| 20260502220500 | 16 | 0.0 | 0.0 | 0.00 | 0.00 | 0.00 | 35 | 1017.3 | |
| 20260502220000 | 15 | 0.0 | 0.0 | 0.00 | 0.00 | 0.00 | 36 | 1017.3 | |
| 20260502215500 | 16 | 0.0 | 0.0 | 0.00 | 0.00 | 0.00 | 35 | 1017.3 | |
| 20260502215000 | 16 | 0.0 | 0.0 | 0.00 | 0.00 | 0.00 | 36 | 1017.3 | |
| 20260502214501 | 16 | 0.0 | 0.0 | 0.00 | 0.00 | 0.00 | 35 | 1017.3 | |
| 20260502214000 | 16 | 0.0 | 0.0 | 0.00 | 0.00 | 0.00 | 36 | 1017.3 | |
| 20260502213500 | 16 | 0.0 | 0.0 | 0.00 | 0.00 | 0.00 | 35 | 1017.3 | |
| 20260502213000 | 16 | 0.0 | 0.0 | 0.00 | 0.00 | 0.00 | 35 | 1017.3 | |
| 20260502212500 | 16 | 0.0 | 0.0 | 0.00 | 0.00 | 0.00 | 36 | 1017.3 | |
| 20260502212000 | 16 | 0.0 | 0.0 | 0.00 | 0.00 | 0.00 | 35 | 1017.2 | |
| 20260502211501 | 16 | 0.0 | 0.0 | 0.00 | 0.00 | 0.00 | 35 | 1017.2 | |
| 20260502211000 | 16 | 0.0 | 0.0 | 0.00 | 0.00 | 0.00 | 35 | 1017.3 | |
| 20260502210500 | 16 | 0.0 | 0.0 | 0.00 | 0.00 | 0.00 | 35 | 1017.3 | |
| 20260502210000 | 16 | 0.0 | 0.0 | 0.00 | 0.00 | 0.00 | 34 | 1017.3 | |
| 20260502205500 | 17 | 0.0 | 0.0 | 0.00 | 0.00 | 0.00 | 34 | 1017.3 | |
| 20260502205000 | 17 | 0.0 | 0.0 | 0.00 | 0.00 | 0.00 | 33 | 1017.2 | |
| 20260502204500 | 17 | 0.0 | 0.0 | 0.00 | 0.00 | 0.00 | 33 | 1017.3 | |
| 20260502204000 | 17 | 0.0 | 0.0 | 0.00 | 0.00 | 0.00 | 32 | 1017.3 | |
| 20260502203500 | 17 | 0.0 | 0.0 | 0.00 | 0.00 | 0.00 | 32 | 1017.3 | |
| 20260502203000 | 17 | 0.0 | 0.0 | 0.00 | 0.00 | 0.00 | 32 | 1017.3 | |
| 20260502202500 | 17 | 0.0 | 0.0 | 0.00 | 0.00 | 0.00 | 31 | 1017.4 | |
| 20260502202000 | 18 | 0.0 | 0.0 | 0.00 | 0.00 | 0.00 | 30 | 1017.2 | |
| 20260502201500 | 18 | 0.0 | 0.0 | 0.00 | 0.00 | 0.00 | 30 | 1017.3 | |
| 20260502201000 | 18 | 0.0 | 0.0 | 0.00 | 0.00 | 0.00 | 30 | 1017.3 | |
| 20260502200500 | 18 | 0.0 | 0.0 | 0.00 | 0.00 | 0.00 | 29 | 1017.3 | |
| 20260502200000 | 18 | 0.0 | 0.0 | 0.00 | 0.00 | 0.00 | 28 | 1017.3 | |
| 20260502195500 | 18 | 0.0 | 0.0 | 0.00 | 0.00 | 0.00 | 29 | 1017.3 |